[[{"header":{"parameterUnit":"m.s-1","parameterCategory":1,"la1":30.2991,"la2":30.254,"lo1":-89.0895,"lo2":-89.0444,"dy":0.0017,"dx":0.0017,"nx":28,"ny":28,"refTime":"2025-04-25T09:00:00:Z","depth":0,"parameterNumber":2,"parameterNumberName":"U-component_of_WINDS"},"data":[0,0,0,0,0,0,0,0,0,0,0,0,0,0,0,0,0,0,0,0,0,0,0,0,0,0,0,0,0,0,0,0,0,0,0,0,0,0,0,0,0,0,0,0,0,0,0,0,0,0,0,0,0,0,0,0,0,0,0.3094,0.3094,0,0.3118,0.3118,0.3119,0.312,0.312,0.312,0.312,0.3143,0.3144,0.3145,0,0,0,0,0,0,0,0,0,0,0,0,0,0.3048,0.3049,0.3094,0.3094,0.3095,0.3118,0.3118,0.3119,0.312,0.312,0.312,0.3119,0.3143,0.3144,0.3145,0,0,0,0,0,0,0,0,0,0,0,0,0,0.307,0.3049,0.3094,0.3098,0.3099,0.3118,0.3118,0.3119,0.3121,0.312,0.312,0.3119,0.3143,0.3144,0.3145,0.3161,0,0,0.3149,0.315,0,0,0,0,0,0,0,0,0.3069,0.3071,0.3097,0.3098,0.3099,0.3116,0.3111,0.3133,0.3121,0.3112,0.312,0.3119,0.3134,0.3136,0.3142,0.3162,0.3163,0.3149,0.315,0.3151,0.3151,0,0,0,0,0,0,0,0.3067,0.307,0.3104,0.3098,0.3099,0.3099,0.3101,0.3115,0.3125,0.3113,0.3113,0.3116,0.3135,0.314,0.3142,0.3164,0.3149,0.315,0.3151,0.3152,0.3198,0.3199,0,0,0,0,0,0,0.3065,0.3069,0.3103,0.3104,0.3082,0.31,0.3103,0.3111,0.3125,0.3127,0.3116,0.3116,0.3138,0.3141,0.3143,0.3163,0.3151,0.3152,0.3153,0.3198,0.3198,0.3199,0,0,0,0,0,0,0.3064,0.3068,0.3102,0.3087,0.3091,0.3101,0.311,0.3111,0.3117,0.3128,0.3129,0.312,0.3138,0.3141,0.3157,0.3163,0.3152,0.3154,0.3197,0.3198,0.3199,0.3202,0,0,0,0,0,0,0.3063,0.3068,0.3074,0.3087,0.3092,0.3115,0.311,0.3112,0.312,0.3119,0.3132,0.3134,0.3138,0.3155,0.3158,0.3165,0.3155,0.3197,0.3198,0.3198,0.3201,0.3203,0.3204,0,0,0,0,0,0.3061,0.3074,0.3074,0.3078,0.31,0.3116,0.3119,0.3124,0.312,0.3127,0.3133,0.3133,0.3162,0.3156,0.316,0.3168,0.3196,0.3197,0.3198,0.3201,0.3202,0.3204,0,0,0,0,0,0,0.3061,0.3076,0.3076,0.3094,0.3104,0.3116,0.3124,0.3125,0.3136,0.3135,0.3141,0.3144,0.3159,0.3165,0.3158,0.3184,0.3179,0.3181,0.3179,0.3181,0.3182,0.3181,0.3156,0,0,0,0,0,0.3063,0.3075,0.3087,0.3101,0.3106,0.3114,0.3121,0.3124,0.3134,0.3138,0.3146,0.3156,0.3167,0.3174,0.3185,0.3202,0.3205,0.3209,0.321,0.3211,0.3213,0.3222,0.3224,0.3202,0.3202,0.3202,0,0,0.3067,0.3077,0.3084,0.3101,0.3109,0.3121,0.3118,0.313,0.3139,0.314,0.3155,0.3161,0.3172,0.3189,0.3196,0.3194,0.322,0.3213,0.3214,0.3214,0.3223,0.3225,0.3227,0.3203,0.3203,0.3203,0,0,0.3081,0.309,0.3102,0.311,0.3123,0.3128,0.3131,0.3144,0.3148,0.3163,0.3165,0.3175,0.3194,0.3202,0.3208,0.3225,0.3225,0.3228,0.3235,0.3244,0.3246,0.3247,0.3253,0.3255,0.323,0.323,0.323,0,0.3085,0.3103,0.3109,0.3121,0.3129,0.3131,0.3144,0.3151,0.3166,0.3171,0.3169,0.3193,0.32,0.3218,0.3223,0.3228,0.3231,0.3227,0.3245,0.3247,0.3248,0.3254,0.3256,0.323,0.323,0.323,0.323,0,0.3107,0.3119,0.3128,0.3143,0.3151,0.3164,0.3171,0.3179,0.3181,0.3187,0.3202,0.3212,0.3224,0.3229,0.3231,0.3247,0.3246,0.3244,0.3239,0.325,0.3256,0.3258,0.3231,0.323,0.323,0.323,0,0,0.3121,0.3139,0.3142,0.3149,0.3163,0.3172,0.3185,0.3198,0.3204,0.3214,0.3225,0.3241,0.324,0.3247,0.325,0.3258,0.3271,0.3256,0.3256,0.3258,0.3289,0.329,0.3292,0.3271,0.3271,0.3272,0.3288,0,0.3136,0.3159,0.3165,0.3184,0.3196,0.3198,0.3209,0.3218,0.3224,0.3234,0.324,0.3251,0.3249,0.3253,0.3261,0.3268,0.3277,0.3266,0.328,0.3281,0.3278,0.3295,0.3296,0.3311,0.329,0.329,0.329,0,0.3157,0.3168,0.3189,0.3201,0.3206,0.3216,0.3228,0.3238,0.3248,0.3252,0.326,0.3263,0.3275,0.327,0.3288,0.328,0.3286,0.329,0.3291,0.3293,0.3286,0.3297,0.3315,0.3318,0.3294,0.3294,0.3293,0,0.3166,0.3186,0.3201,0.3206,0.3221,0.3228,0.3234,0.3244,0.3252,0.3262,0.3267,0.3279,0.3285,0.3294,0.3299,0.3295,0.3316,0.3311,0.3319,0.3319,0.3324,0.3323,0.3343,0.3328,0.3328,0.3328,0.3328,0,0.3182,0.3195,0.3205,0.3214,0.3228,0.3234,0.3247,0.3253,0.3263,0.3273,0.3275,0.3285,0.3291,0.3301,0.3306,0.3319,0.3322,0.3325,0.3326,0.3325,0.3325,0.3329,0.3328,0.3328,0.3328,0.3328,0.3328,0,0.3194,0.3201,0.3217,0.323,0.3233,0.3243,0.3254,0.3262,0.3268,0.3281,0.3284,0.3293,0.3305,0.3311,0.3326,0.3329,0.3345,0.3345,0.3341,0.3342,0.3349,0.3348,0.3373,0.3376,0.3358,0.3358,0.3359,0,0.3204,0.3213,0.3227,0.3234,0.3241,0.3252,0.326,0.3266,0.3274,0.3287,0.3294,0.3306,0.3316,0.3336,0.3343,0.3355,0.3355,0.3363,0.3357,0.3355,0.3355,0.3355,0.3355,0.3364,0.3364,0.3364,0.3364,0,0.3221,0.3224,0.3235,0.3247,0.3257,0.3267,0.3276,0.3282,0.329,0.3298,0.3311,0.3319,0.3334,0.3346,0.3359,0.3365,0.3366,0.3366,0.3369,0.3368,0.3365,0.3366,0.3344,0.3366,0.3366,0.3366,0.3365,0.3365,0.3232,0.3241,0.3252,0.3264,0.3272,0.3281,0.329,0.3297,0.3308,0.3321,0.3324,0.3337,0.3347,0.3364,0.337,0.338,0.3379,0.3382,0.3383,0.3384,0.3384,0.3363,0.3383,0.3383,0.3382,0.3382,0.3382,0,0.3249,0.3256,0.3267,0.3281,0.3291,0.3291,0.3302,0.331,0.3322,0.3331,0.3342,0.3356,0.3368,0.3376,0.3388,0.3395,0.3395,0.3398,0.3397,0.3398,0.3385,0.3382,0.3397,0.3397,0.3397,0.3397,0.3397,0.3397,0.3259,0.3274,0.3278,0.3297,0.3304,0.3317,0.3323,0.3332,0.3339,0.3355,0.3365,0.3371,0.338,0.3392,0.3403,0.3405,0.3409,0.3411,0.3414,0.3401,0.3399,0.3398,0.3395,0.3412,0.3412,0.3426,0.3426,0.3426]},{"header":{"parameterUnit":"m.s-1","parameterCategory":1,"la1":30.2991,"la2":30.254,"lo1":-89.0895,"lo2":-89.0444,"dy":0.0017,"dx":0.0017,"nx":28,"ny":28,"refTime":"2025-04-25T09:00:00:Z","depth":0,"parameterNumber":3,"parameterNumberName":"V-component_of_WINDS"},"data":[0,0,0,0,0,0,0,0,0,0,0,0,0,0,0,0,0,0,0,0,0,0,0,0,0,0,0,0,0,0,0,0,0,0,0,0,0,0,0,0,0,0,0,0,0,0,0,0,0,0,0,0,0,0,0,0,0,0,-0.2491,-0.2491,0,-0.2483,-0.2483,-0.2483,-0.2496,-0.2497,-0.2497,-0.2498,-0.249,-0.249,-0.2489,0,0,0,0,0,0,0,0,0,0,0,0,0,-0.2517,-0.2516,-0.2491,-0.2491,-0.2491,-0.2483,-0.2483,-0.2483,-0.2496,-0.2497,-0.2497,-0.2498,-0.249,-0.249,-0.2489,0,0,0,0,0,0,0,0,0,0,0,0,0,-0.2507,-0.2516,-0.2491,-0.2496,-0.2497,-0.2483,-0.2483,-0.2483,-0.2496,-0.2497,-0.2498,-0.2498,-0.2491,-0.249,-0.2489,-0.247,0,0,-0.2486,-0.2486,0,0,0,0,0,0,0,0,-0.2507,-0.2506,-0.2496,-0.2496,-0.2496,-0.2491,-0.249,-0.2479,-0.2496,-0.2496,-0.2498,-0.2498,-0.249,-0.2489,-0.2486,-0.2469,-0.2469,-0.2486,-0.2485,-0.2485,-0.2485,0,0,0,0,0,0,0,-0.2508,-0.2506,-0.2488,-0.2495,-0.2496,-0.2499,-0.2499,-0.2488,-0.249,-0.2496,-0.2497,-0.2496,-0.249,-0.2487,-0.2486,-0.2469,-0.2486,-0.2485,-0.2485,-0.2484,-0.2436,-0.2435,0,0,0,0,0,0,-0.2508,-0.2507,-0.2488,-0.2488,-0.2504,-0.2498,-0.2497,-0.2492,-0.249,-0.249,-0.2496,-0.2497,-0.2488,-0.2487,-0.2486,-0.2463,-0.2485,-0.2484,-0.2484,-0.2437,-0.2436,-0.2435,0,0,0,0,0,0,-0.2509,-0.2506,-0.2488,-0.2497,-0.2495,-0.2497,-0.2491,-0.2492,-0.2489,-0.2489,-0.249,-0.2492,-0.2489,-0.2487,-0.2474,-0.2463,-0.2484,-0.2483,-0.2438,-0.2437,-0.2436,-0.2418,0,0,0,0,0,0,-0.2509,-0.2506,-0.2499,-0.2497,-0.2495,-0.2476,-0.2491,-0.2491,-0.2487,-0.2489,-0.2486,-0.2486,-0.2489,-0.2475,-0.2473,-0.2462,-0.2482,-0.2439,-0.2437,-0.2436,-0.242,-0.2417,-0.2414,0,0,0,0,0,-0.251,-0.2494,-0.2499,-0.2496,-0.2486,-0.2475,-0.2474,-0.2478,-0.2486,-0.2479,-0.2479,-0.2486,-0.2465,-0.2474,-0.2471,-0.246,-0.2439,-0.2438,-0.2436,-0.2421,-0.2417,-0.2414,0,0,0,0,0,0,-0.2495,-0.2494,-0.2499,-0.2482,-0.2479,-0.2478,-0.2468,-0.2474,-0.2468,-0.247,-0.2475,-0.2474,-0.246,-0.2459,-0.2468,-0.2442,-0.2454,-0.2451,-0.2443,-0.2439,-0.2437,-0.2437,-0.2481,0,0,0,0,0,-0.249,-0.2481,-0.2481,-0.2466,-0.2465,-0.2467,-0.2462,-0.2466,-0.2462,-0.2461,-0.246,-0.2457,-0.245,-0.2445,-0.2438,-0.242,-0.2419,-0.2411,-0.2409,-0.2406,-0.2404,-0.2394,-0.2391,-0.243,-0.243,-0.243,0,0,-0.2479,-0.2477,-0.2472,-0.2463,-0.2461,-0.2452,-0.2465,-0.2456,-0.2449,-0.246,-0.2446,-0.2446,-0.2443,-0.2427,-0.242,-0.2425,-0.2393,-0.2404,-0.2402,-0.2401,-0.2392,-0.2388,-0.2385,-0.2429,-0.2429,-0.2429,0,0,-0.2454,-0.2452,-0.244,-0.2437,-0.2434,-0.2435,-0.2432,-0.243,-0.243,-0.2417,-0.2425,-0.2418,-0.2405,-0.2402,-0.2399,-0.2373,-0.2379,-0.2371,-0.2356,-0.2346,-0.2343,-0.2341,-0.2331,-0.2328,-0.2369,-0.2369,-0.2369,0,-0.2441,-0.2427,-0.2432,-0.2422,-0.2418,-0.2427,-0.2415,-0.2412,-0.2406,-0.2404,-0.241,-0.2394,-0.2393,-0.2376,-0.237,-0.2367,-0.2364,-0.2371,-0.2343,-0.2341,-0.2338,-0.2329,-0.2326,-0.2368,-0.2368,-0.2368,-0.2368,0,-0.2411,-0.2402,-0.2392,-0.2386,-0.2382,-0.237,-0.2373,-0.2368,-0.2372,-0.2373,-0.2359,-0.2358,-0.2351,-0.2347,-0.2351,-0.2331,-0.2335,-0.2342,-0.2354,-0.2333,-0.2325,-0.2322,-0.2366,-0.2367,-0.2367,-0.2367,0,0,-0.2376,-0.2373,-0.237,-0.2367,-0.2364,-0.2357,-0.2346,-0.2339,-0.2334,-0.233,-0.2321,-0.231,-0.2317,-0.2313,-0.2317,-0.2309,-0.2288,-0.2317,-0.2317,-0.2311,-0.2266,-0.226,-0.2256,-0.2293,-0.2292,-0.2292,-0.2266,0,-0.2351,-0.2332,-0.2336,-0.2317,-0.2308,-0.2317,-0.2308,-0.2305,-0.2306,-0.2299,-0.23,-0.2292,-0.2302,-0.23,-0.2292,-0.2292,-0.2279,-0.2294,-0.2284,-0.2283,-0.2284,-0.2251,-0.2245,-0.2221,-0.2263,-0.2262,-0.2262,0,-0.2319,-0.2314,-0.2294,-0.2292,-0.2289,-0.228,-0.2274,-0.2267,-0.2264,-0.2265,-0.2261,-0.2267,-0.2256,-0.2268,-0.2253,-0.2264,-0.226,-0.2259,-0.2259,-0.2257,-0.2271,-0.2249,-0.2213,-0.2209,-0.2257,-0.2257,-0.2258,0,-0.2295,-0.2283,-0.2269,-0.2267,-0.2265,-0.2258,-0.2257,-0.2255,-0.225,-0.2245,-0.2242,-0.2236,-0.2233,-0.2228,-0.2231,-0.224,-0.2216,-0.2229,-0.2216,-0.2216,-0.221,-0.221,-0.2173,-0.2209,-0.2209,-0.2209,-0.2209,0,-0.2266,-0.2253,-0.2258,-0.225,-0.2236,-0.2241,-0.2227,-0.2227,-0.2225,-0.2217,-0.2225,-0.2217,-0.2222,-0.2215,-0.2218,-0.2205,-0.2204,-0.2204,-0.2205,-0.2203,-0.2203,-0.22,-0.2201,-0.2208,-0.2208,-0.2208,-0.2208,0,-0.2236,-0.2239,-0.2225,-0.2224,-0.2223,-0.2213,-0.2212,-0.2205,-0.2206,-0.2196,-0.2194,-0.2196,-0.2188,-0.2191,-0.2183,-0.2185,-0.2168,-0.2171,-0.2168,-0.2169,-0.2156,-0.2157,-0.2115,-0.211,-0.215,-0.2149,-0.2149,0,-0.2217,-0.2207,-0.2206,-0.2201,-0.2199,-0.2191,-0.2186,-0.2192,-0.2187,-0.2183,-0.2175,-0.2168,-0.2162,-0.2148,-0.2149,-0.2143,-0.2146,-0.2132,-0.2145,-0.2143,-0.2145,-0.2145,-0.2144,-0.2129,-0.2128,-0.2128,-0.2128,0,-0.2183,-0.2185,-0.2178,-0.2172,-0.2166,-0.2162,-0.2158,-0.2153,-0.2158,-0.2152,-0.2144,-0.2139,-0.2131,-0.2123,-0.2117,-0.2116,-0.2122,-0.2124,-0.212,-0.2118,-0.2116,-0.2116,-0.2161,-0.2124,-0.2125,-0.2125,-0.2125,-0.2125,-0.2158,-0.2149,-0.2147,-0.2139,-0.2137,-0.2133,-0.2125,-0.2126,-0.2119,-0.2112,-0.2116,-0.2106,-0.2104,-0.2097,-0.2095,-0.2087,-0.2093,-0.2088,-0.2087,-0.2085,-0.2083,-0.2118,-0.2086,-0.2086,-0.2086,-0.2087,-0.2087,0,-0.2124,-0.2122,-0.2115,-0.2109,-0.2103,-0.211,-0.2106,-0.21,-0.2092,-0.2089,-0.2083,-0.2073,-0.2066,-0.2067,-0.206,-0.2054,-0.2057,-0.2052,-0.2052,-0.2052,-0.2079,-0.2082,-0.205,-0.205,-0.205,-0.205,-0.205,-0.205,-0.2105,-0.2091,-0.2093,-0.2078,-0.2078,-0.2068,-0.2065,-0.2061,-0.2059,-0.2048,-0.2042,-0.2043,-0.2041,-0.2034,-0.2028,-0.2028,-0.2025,-0.2019,-0.2021,-0.2046,-0.205,-0.2053,-0.2056,-0.2019,-0.2019,-0.1994,-0.1994,-0.1994]}]]